User: anonymous   Login
Location: Aurora Center
(43.5271°N, 98.5894°W)
Time: 08:05:23
(UTC-05:00)
Language:

ACS3 Solar Sail - Orbit

View from above orbital plane
View from above orbital plane
View from above satellite
View from above satellite

Ground track
Ground track

The orbit data is extracted from the following two-line orbital elements,

1 59588U 24077B   24193.16958010  .00000053  00000-0  96528-4 0  9996
2 59588  97.4052 255.7789 0020788  32.7670 327.4766 13.67690764 10686
Epoch (UTC): 11 July 2024 04:04:11
Eccentricity: 0.0020788
inclination: 97.4052°
perigee height: 992 km
apogee height: 1023 km
right ascension of ascending node: 255.7789°
argument of perigee: 32.7670°
revolutions per day: 13.67690764
mean anomaly at epoch: 327.4766°
orbit number at epoch: 1068

The dashed part of the orbit path shows where the satellite is in the earth's shadow,  

DLR